timestamp,surface_pressure_avg,surface_temp_avg,battery_voltage,lat,long
2022-10-25 00:09:00+00:00,343.1713,13.8,12.33,47.84626,-54.09684
2022-10-25 00:19:00+00:00,337.3429,13.82,12.33,47.84626,-54.09684
2022-10-25 00:29:00+00:00,336.2097,13.84,12.33,47.84626,-54.09684
2022-10-25 00:39:00+00:00,332.3646,13.86,12.33,47.84626,-54.09684
2022-10-25 00:49:00+00:00,323.4263,13.87,12.33,47.84626,-54.09684
2022-10-25 00:59:00+00:00,319.1196,13.88,12.33,47.84626,-54.09684
2022-10-25 01:09:00+00:00,318.2297,13.88,12.33,47.84626,-54.09684
2022-10-25 01:19:00+00:00,309.0813,13.88,12.33,47.84626,-54.09684
2022-10-25 01:29:00+00:00,298.358,13.89,12.33,47.84626,-54.09684
2022-10-25 01:39:00+00:00,294.708,13.89,12.33,47.84626,-54.09684
2022-10-25 01:49:00+00:00,287.183,13.9,12.33,47.84626,-54.09684
2022-10-25 01:59:00+00:00,269.4681,13.89,12.33,47.84626,-54.09684
2022-10-25 02:09:00+00:00,256.9947,13.9,12.33,47.84626,-54.09684
2022-10-25 02:19:00+00:00,253.6864,13.9,12.25,47.84626,-54.09684
2022-10-25 02:29:00+00:00,247.6998,13.9,12.25,47.84626,-54.09684
2022-10-25 02:39:00+00:00,235.9981,13.89,12.25,47.84626,-54.09684
2022-10-25 02:49:00+00:00,230.0981,13.82,12.25,47.84626,-54.09684
2022-10-25 02:59:00+00:00,228.7314,13.8,12.25,47.84626,-54.09684
2022-10-25 03:09:00+00:00,219.2898,13.8,12.25,47.84626,-54.09684
2022-10-25 03:19:00+00:00,209.4565,13.8,12.25,47.84626,-54.09684
2022-10-25 03:29:00+00:00,206.0731,13.79,12.25,47.84626,-54.09684
2022-10-25 03:39:00+00:00,201.2448,13.8,12.25,47.84626,-54.09684
2022-10-25 03:49:00+00:00,194.1448,13.8,12.25,47.84626,-54.09684
2022-10-25 03:59:00+00:00,189.8315,13.8,12.25,47.84626,-54.09684
2022-10-25 04:09:00+00:00,186.2631,13.8,12.25,47.84626,-54.09684
2022-10-25 04:19:00+00:00,178.8065,13.8,12.25,47.84626,-54.09684
2022-10-25 04:29:00+00:00,176.3332,13.8,12.25,47.84626,-54.09684
2022-10-25 04:39:00+00:00,180.0798,13.8,12.25,47.84626,-54.09684
2022-10-25 04:49:00+00:00,175.1782,13.82,12.25,47.84626,-54.09684
2022-10-25 04:59:00+00:00,170.1615,13.8,12.25,47.84626,-54.09684
2022-10-25 05:09:00+00:00,173.4064,13.8,12.25,47.84626,-54.09684
2022-10-25 05:19:01+00:00,172.9132,13.8,12.25,47.84626,-54.09684
2022-10-25 05:29:01+00:00,170.1265,13.8,12.25,47.84626,-54.09684
2022-10-25 05:39:01+00:00,171.1732,13.82,12.25,47.84626,-54.09684
2022-10-25 05:49:01+00:00,175.4915,13.84,12.25,47.84626,-54.09684
2022-10-25 05:59:01+00:00,179.0515,13.85,12.25,47.84626,-54.09684
2022-10-25 06:09:01+00:00,182.6364,13.85,12.25,47.84626,-54.09684
2022-10-25 06:19:00+00:00,188.3748,13.85,12.25,47.84626,-54.09684
2022-10-25 06:29:00+00:00,193.7548,13.85,12.25,47.84626,-54.09684
2022-10-25 06:39:00+00:00,199.8098,13.84,12.25,47.84626,-54.09684
2022-10-25 06:49:00+00:00,205.3464,13.83,12.25,47.84626,-54.09684
2022-10-25 06:59:00+00:00,209.7448,13.85,12.25,47.84626,-54.09684
2022-10-25 07:09:00+00:00,213.9381,13.84,12.25,47.84626,-54.09684
2022-10-25 07:19:00+00:00,221.1664,13.82,12.25,47.84626,-54.09684
2022-10-25 07:29:00+00:00,228.4281,13.8,12.25,47.84626,-54.09684
2022-10-25 07:39:00+00:00,233.8647,13.8,12.25,47.84626,-54.09684
2022-10-25 07:49:00+00:00,238.9481,13.8,12.25,47.84626,-54.09684
2022-10-25 07:59:00+00:00,246.2097,13.8,12.25,47.84626,-54.09684
2022-10-25 08:09:00+00:00,250.703,13.8,12.25,47.84626,-54.09684
2022-10-25 08:19:00+00:00,252.7198,13.8,12.25,47.84626,-54.09684
2022-10-25 08:29:00+00:00,258.8164,13.8,12.25,47.84626,-54.09684
2022-10-25 08:39:00+00:00,270.2764,13.8,12.25,47.84626,-54.09684
2022-10-25 08:49:00+00:00,279.558,13.8,12.25,47.84626,-54.09684
2022-10-25 08:59:00+00:00,286.8763,13.8,12.25,47.84626,-54.09684
2022-10-25 09:09:00+00:00,295.6364,13.8,12.25,47.84626,-54.09684
2022-10-25 09:19:00+00:00,302.388,13.79,12.25,47.84626,-54.09684
2022-10-25 09:29:00+00:00,306.103,13.78,12.25,47.84626,-54.09684
2022-10-25 09:39:00+00:00,314.9847,13.79,12.25,47.84626,-54.09684
2022-10-25 09:49:00+00:00,325.6964,13.78,12.25,47.84626,-54.09684
2022-10-25 09:59:00+00:00,331.0096,13.72,12.25,47.84626,-54.09684
2022-10-25 10:09:00+00:00,337.5313,13.74,12.25,47.84626,-54.09684
2022-10-25 10:19:00+00:00,345.3796,13.77,12.25,47.84626,-54.09684
2022-10-25 10:29:00+00:00,350.0779,13.77,12.25,47.84626,-54.09684
2022-10-25 10:39:00+00:00,352.3196,13.7,12.25,47.84626,-54.09684
2022-10-25 10:49:00+00:00,361.4513,13.7,12.25,47.84626,-54.09684
2022-10-25 10:59:00+00:00,364.7477,13.7,12.25,47.84626,-54.09684
2022-10-25 11:09:00+00:00,361.7596,13.76,12.25,47.84626,-54.09684
2022-10-25 11:19:00+00:00,362.773,13.77,12.65,47.84626,-54.09684
2022-10-25 11:29:00+00:00,363.7395,13.78,12.65,47.84626,-54.09684
2022-10-25 11:39:00+00:00,360.1946,13.8,12.65,47.84626,-54.09684
2022-10-25 11:49:00+00:00,358.0812,13.8,12.65,47.84626,-54.09684
2022-10-25 11:59:00+00:00,358.9713,13.79,12.65,47.84626,-54.09684
2022-10-25 12:09:00+00:00,357.62800000000016,13.79,12.65,47.84626,-54.09684
2022-10-25 12:19:00+00:00,351.6546,13.78,13.05,47.84626,-54.09684
2022-10-25 12:29:00+00:00,348.7813,13.79,13.05,47.84626,-54.09684
2022-10-25 12:39:00+00:00,347.7013,13.79,13.05,47.84626,-54.09684
2022-10-25 12:49:00+00:00,340.4380000000001,13.8,13.05,47.84626,-54.09684
2022-10-25 12:59:00+00:00,333.9713,13.8,13.05,47.84626,-54.09684
2022-10-25 13:09:00+00:00,333.5098,13.8,13.05,47.84626,-54.09684
2022-10-25 13:19:01+00:00,329.05300000000005,13.8,13.13,47.84626,-54.09684
2022-10-25 13:29:01+00:00,318.223,13.8,13.13,47.84626,-54.09684
2022-10-25 13:39:01+00:00,311.863,13.8,13.13,47.84626,-54.09684
2022-10-25 13:49:01+00:00,306.7214,13.8,13.13,47.84626,-54.09684
2022-10-25 13:59:01+00:00,297.2297,13.8,13.13,47.84626,-54.09684
2022-10-25 14:09:01+00:00,285.0214,13.8,13.13,47.84626,-54.09684
2022-10-25 14:19:00+00:00,276.8581,13.8,13.13,47.84626,-54.09684
2022-10-25 14:29:00+00:00,269.0597,13.82,13.13,47.84626,-54.09684
2022-10-25 14:39:00+00:00,257.9264,13.83,13.13,47.84626,-54.09684
2022-10-25 14:49:00+00:00,248.2647,13.85,13.13,47.84626,-54.09684
2022-10-25 14:59:00+00:00,240.9664,13.86,13.13,47.84626,-54.09684
2022-10-25 15:09:00+00:00,232.4614,13.87,13.13,47.84626,-54.09684
2022-10-25 15:19:00+00:00,222.0865,13.87,13.05,47.84626,-54.09684
2022-10-25 15:29:00+00:00,213.4798,13.88,13.05,47.84626,-54.09684
2022-10-25 15:39:00+00:00,206.6415,13.89,13.05,47.84626,-54.09684
2022-10-25 15:49:00+00:00,198.6515,13.89,13.05,47.84626,-54.09684
2022-10-25 15:59:00+00:00,190.3765,13.9,13.05,47.84626,-54.09684
2022-10-25 16:09:00+00:00,186.2815,13.9,13.05,47.84626,-54.09684
2022-10-25 16:19:00+00:00,183.4665,13.89,12.97,47.84626,-54.09684
2022-10-25 16:29:00+00:00,180.0598,13.88,12.97,47.84626,-54.09684
2022-10-25 16:39:00+00:00,175.6931,13.88,12.97,47.84626,-54.09684
2022-10-25 16:49:00+00:00,172.3148,13.89,12.97,47.84626,-54.09684
2022-10-25 16:59:00+00:00,171.0465,13.9,12.97,47.84626,-54.09684
2022-10-25 17:09:00+00:00,169.8549,13.9,12.97,47.84626,-54.09684
2022-10-25 17:19:00+00:00,165.5932,13.9,12.89,47.84626,-54.09684
2022-10-25 17:29:00+00:00,162.9832,13.9,12.89,47.84626,-54.09684
2022-10-25 17:39:00+00:00,163.8965,13.89,12.89,47.84626,-54.09684
2022-10-25 17:49:00+00:00,164.6564,13.88,12.89,47.84626,-54.09684
2022-10-25 17:59:00+00:00,165.4898,13.88,12.89,47.84626,-54.09684
2022-10-25 18:09:00+00:00,167.7982,13.87,12.89,47.84626,-54.09684
2022-10-25 18:19:01+00:00,171.9181,13.87,12.73,47.84626,-54.09684
2022-10-25 18:29:01+00:00,173.4366,13.88,12.73,47.84626,-54.09684
2022-10-25 18:39:01+00:00,172.0998,13.9,12.73,47.84626,-54.09684
2022-10-25 18:49:01+00:00,177.6898,13.9,12.73,47.84626,-54.09684
2022-10-25 18:59:01+00:00,187.6098,13.9,12.73,47.84626,-54.09684
2022-10-25 19:09:01+00:00,189.8798,13.9,12.73,47.84626,-54.09684
2022-10-25 19:19:00+00:00,195.3648,13.89,12.57,47.84626,-54.09684
2022-10-25 19:29:00+00:00,207.7964,13.8,12.57,47.84626,-54.09684
2022-10-25 19:39:00+00:00,211.7631,13.8,12.57,47.84626,-54.09684
2022-10-25 19:49:00+00:00,214.3981,13.8,12.57,47.84626,-54.09684
2022-10-25 19:59:00+00:00,225.3564,13.8,12.57,47.84626,-54.09684
2022-10-25 20:09:00+00:00,233.3665,13.8,12.57,47.84626,-54.09684
2022-10-25 20:19:00+00:00,234.4464,13.8,12.41,47.84626,-54.09684
2022-10-25 20:29:00+00:00,239.6164,13.8,12.41,47.84626,-54.09684
2022-10-25 20:39:00+00:00,246.5964,13.82,12.41,47.84626,-54.09684
2022-10-25 20:49:00+00:00,250.3315,13.84,12.41,47.84626,-54.09684
2022-10-25 20:59:00+00:00,253.7098,13.82,12.41,47.84626,-54.09684
2022-10-25 21:09:00+00:00,262.3948,13.8,12.41,47.84626,-54.09684
2022-10-25 21:19:00+00:00,269.8864,13.8,12.41,47.84626,-54.09684
2022-10-25 21:29:00+00:00,273.8131,13.8,12.41,47.84626,-54.09684
2022-10-25 21:39:00+00:00,278.1147,13.8,12.41,47.84626,-54.09684
2022-10-25 21:49:00+00:00,287.2964,13.8,12.41,47.84626,-54.09684
2022-10-25 21:59:00+00:00,293.7364,13.8,12.41,47.84626,-54.09684
2022-10-25 22:09:00+00:00,300.0064,13.78,12.41,47.84626,-54.09684
2022-10-25 22:19:00+00:00,310.178,13.74,12.41,47.84626,-54.09684
2022-10-25 22:29:00+00:00,320.663,13.76,12.41,47.84626,-54.09684
2022-10-25 22:39:00+00:00,325.4746,13.76,12.41,47.84626,-54.09684
2022-10-25 22:49:00+00:00,328.9196,13.76,12.41,47.84626,-54.09684
2022-10-25 22:59:00+00:00,338.7897,13.77,12.41,47.84626,-54.09684
2022-10-25 23:09:00+00:00,343.7629,13.76,12.41,47.84626,-54.09684
2022-10-25 23:19:00+00:00,346.8145,13.72,12.41,47.84626,-54.09684
2022-10-25 23:29:00+00:00,350.92800000000005,13.7,12.41,47.84626,-54.09684
2022-10-25 23:39:00+00:00,353.733,13.7,12.41,47.84626,-54.09684
2022-10-25 23:49:00+00:00,353.6979,13.7,12.41,47.84626,-54.09684
2022-10-25 23:59:00+00:00,356.048,13.7,12.41,47.84626,-54.09684
